Location: Pcim
(49.7500°N, 19.9670°E)
Time: 18:13:46
(UTC+02:00)

AO-27 - Pass Details

Date: 24 April 2024
Orbit: 783 x 797 km, 98.8° (Epoch: 28 May)

Event Time Altitude Azimuth Distance (km) Brightness Sun altitude
Exits shadow 21:47:40 - 196° (SSW) 2,790 10.2 -16.7°
Reaches altitude 10° 21:48:52 10° 201° (SSW) 2,362 9.9 -16.9°
Maximum altitude 21:53:32 32° 264° (W) 1,335 9.2 -17.4°
Drops below altitude 10° 21:58:14 10° 328° (NNW) 2,379 11.4 -17.9°
Sets 22:00:49 0° 338° (NNW) 3,313 12.3 -18.2°
